This is the latest recevied weather packets stored in our database for station/object HS3UAA-1. If no packets are shown the sender has not sent any weather packets the latest 10 day(s).
| Time | Temp. | Humidity | Pressure | Rain* | Wind** | Luminosity | Snow |
|---|---|---|---|---|---|---|---|
| 1787876208 | 30° C | 46% | 996 hPa | - | - | 0 W/m² | - |
| 1787875886 | 30° C | 45% | 996 hPa | - | - | 0 W/m² | - |
| 1787875564 | 31.11° C | 44% | 996 hPa | - | - | 0 W/m² | - |
| 1787875242 | 32.78° C | 49% | 996 hPa | - | - | 0 W/m² | - |
| 1787874920 | 32.78° C | 50% | 996 hPa | - | - | 0 W/m² | - |
| 1787874598 | 32.22° C | 51% | 996 hPa | - | - | 0 W/m² | - |
| 1787874276 | 33.33° C | 48% | 996 hPa | - | - | 0 W/m² | - |
| 1787873954 | 33.33° C | 49% | 995 hPa | - | - | 0 W/m² | - |
| 1787873632 | 33.89° C | 48% | 995 hPa | - | - | 0 W/m² | - |
| 1787873310 | 32.78° C | 50% | 995 hPa | - | - | 0 W/m² | - |
| 1787872988 | 32.78° C | 51% | 995 hPa | - | - | 0 W/m² | - |
| 1787872666 | 32.22° C | 51% | 995 hPa | - | - | 0 W/m² | - |
| 1787872344 | 33.33° C | 48% | 995 hPa | - | - | 0 W/m² | - |
| 1787872022 | 33.33° C | 49% | 995 hPa | - | - | 0 W/m² | - |
| 1787871700 | 32.78° C | 50% | 995 hPa | - | - | 0 W/m² | - |
| 1787871378 | 33.33° C | 49% | 995 hPa | - | - | 0 W/m² | - |
| 1787871056 | 33.33° C | 49% | 995 hPa | - | - | 0 W/m² | - |
| 1787870734 | 33.33° C | 49% | 995 hPa | - | - | 0 W/m² | - |
| 1787870412 | 33.33° C | 49% | 995 hPa | - | - | 0 W/m² | - |
| 1787870090 | 32.78° C | 49% | 995 hPa | - | - | 0 W/m² | - |
| 1787869768 | 32.78° C | 51% | 995 hPa | - | - | 0 W/m² | - |
| 1787869446 | 32.78° C | 50% | 995 hPa | - | - | 0 W/m² | - |
| 1787869124 | 32.78° C | 50% | 995 hPa | - | - | 0 W/m² | - |
| 1787868802 | 32.78° C | 49% | 995 hPa | - | - | 0 W/m² | - |
| 1787868480 | 32.78° C | 50% | 995 hPa | - | - | 0 W/m² | - |
* Rain since midnight (hover to see other rain measurements)
** Current wind speed in m/s (hover to see current wind gust speed)